Location: *
(38.4303°S, 157.0822°W)
Time: 13:29:29
(UTC+00:00)

Cosmos 1844 - Pass Details

Date: 21 May 2024
Orbit: 821 x 868 km, 70.9° (Epoch: 22 June)

Event Time Altitude Azimuth Distance (km) Brightness Sun altitude
Exits shadow 16:25:12 - 211° (SSW) 2,691 5.9 -12.5°
Reaches altitude 10° 16:25:52 10° 212° (SSW) 2,448 5.7 -12.3°
Maximum altitude 16:31:17 53° 287° (WNW) 1,017 3.8 -11.3°
Drops below altitude 10° 16:36:42 10° 3° (N) 2,434 6.4 -10.3°
Sets 16:39:10 0° 7° (N) 3,366 7.2 -9.9°
